Flag for Portugal Weather past 2 weeks in Amadora, Portugal

Now
64 °F

Passing clouds.


Feels Like: 64 °F
Forecast: 53 / 65 °F
Wind: 10 mph from Northwest

Location: Lisbon Portela Airport


UV Index: 5 (Moderate)

Visibility: N/A


Pressure: 29.98 "Hg

Humidity: 68%

Dew point: 54 °F

Location of AmadoraLocation

Historic Weather in Amadora

°F

Amadora temperature yesterday

Maximum temperature yesterday: 75 °F (at 1:30 PM)
Minimum temperature yesterday: 57 °F (at 12:00 AM)
Average temperature yesterday: 63 °F

Past Weeks' High & Low Weather Summary

 TemperatureHumidityPressure
High77 °F (Apr 8, 3:00 PM)100% (Apr 4, 4:30 PM)30.21 "Hg (Apr 4, 4:30 PM)
Low48 °F (Apr 4, 12:30 AM)44% (Apr 8, 2:30 PM)29.86 "Hg (Apr 3, 4:00 PM)
Average61 °F82%30.03 "Hg
* Reported Apr 3 4:00 PM — Apr 18 4:00 PM, Amadora, Weather by CustomWeather, © 2014

Note: Actual official high and low records may vary slightly from our data, if they occured in-between our weather recording intervals... More about our weather records

Advertising

Historic Weather Conditions — Data for Previous 24 hours

 ConditionsComfort  
Time TempWeatherWind HumidityBarometerVisibility
4:00 PM
Apr 18
64 °FPassing clouds.13 mph68%30.01 "HgN/A
3:30 PM64 °FPassing clouds.14 mph68%30.01 "HgN/A
3:00 PM64 °FScattered clouds.14 mph73%30.01 "HgN/A
2:00 PM64 °FPartly sunny.13 mph73%30.01 "HgN/A
1:30 PM63 °FPartly sunny.14 mph73%30.04 "HgN/A
1:00 PM63 °FPartly sunny.13 mph73%30.04 "HgN/A
12:30 PM63 °FPartly sunny.13 mph73%30.04 "HgN/A
12:00 PM63 °FScattered clouds.13 mph73%30.01 "HgN/A
11:30 AM63 °FScattered clouds.15 mph73%30.01 "HgN/A
11:00 AM61 °FScattered clouds.12 mph77%30.01 "HgN/A
10:30 AM61 °FScattered clouds.12 mph83%30.01 "HgN/A
10:00 AM61 °FPassing clouds.12 mph77%30.01 "HgN/A
9:30 AM59 °FPassing clouds.13 mph82%30.01 "HgN/A
9:00 AM59 °FPassing clouds.13 mph82%30.01 "HgN/A
8:30 AM57 °FPassing clouds.9 mph88%30.01 "HgN/A
8:00 AM55 °FPassing clouds.9 mph88%30.01 "HgN/A
7:30 AM55 °FPassing clouds.10 mph88%30.01 "HgN/A
7:00 AM55 °FPassing clouds.10 mph88%30.01 "HgN/A
6:30 AM55 °FPassing clouds.10 mph88%29.98 "HgN/A
6:00 AM55 °FPassing clouds.12 mph94%29.98 "HgN/A
5:30 AM55 °FPassing clouds.14 mph94%29.98 "HgN/A
5:00 AM55 °FPassing clouds.13 mph94%29.98 "HgN/A
4:30 AM55 °FPassing clouds.10 mph94%29.98 "Hg6 mi
3:00 AM55 °FPassing clouds.13 mph94%30.01 "Hg4 mi
2:30 AM55 °FPassing clouds.12 mph94%30.01 "Hg4 mi
2:00 AM55 °FPassing clouds.6 mph94%30.01 "Hg6 mi
1:30 AM55 °FPassing clouds.6 mph94%30.01 "HgN/A
1:00 AM57 °FPassing clouds.10 mph88%30.01 "HgN/A
12:00 AM57 °FPassing clouds.15 mph88%30.04 "HgN/A
11:30 PM
Apr 17
57 °FPassing clouds.14 mph88%30.04 "HgN/A
11:00 PM57 °FPassing clouds.16 mph94%30.04 "HgN/A
10:30 PM57 °FPassing clouds.18 mph94%30.01 "HgN/A
10:00 PM57 °FPassing clouds.17 mph94%30.01 "HgN/A
9:30 PM59 °FClear.18 mph88%30.01 "Hg10 mi
9:00 PM59 °FPassing clouds.17 mph88%30.01 "HgN/A
8:30 PM61 °FPassing clouds.18 mph88%29.98 "HgN/A
8:00 PM63 °FPassing clouds.17 mph83%29.98 "HgN/A
7:30 PM64 °FSunny.16 mph83%29.98 "Hg10 mi
7:00 PM66 °FSunny.15 mph78%29.98 "Hg10 mi
6:00 PM70 °FPassing clouds.12 mph73%29.98 "HgN/A
5:00 PM72 °FPassing clouds.12 mph69%30.01 "HgN/A
Weather by CustomWeather, © 2014

See weather overview